Location: Antioch
(38.0049°N, 121.8058°W)
Time: 01:39:33
(UTC+00:00)

Cosmos 1503 Rocket - Pass Details

Date: 11 February 2026
Orbit: 748 x 787 km, 74.0° (Epoch: 10 March)

Event Time Altitude Azimuth Distance (km) Brightness Sun altitude
Rises 13:18:28 0° 192° (SSW) 3,178 7.1 -20.8°
Reaches altitude 10° 13:20:48 10° 190° (S) 2,260 6.3 -20.4°
Maximum altitude 13:25:55 75° 106° (ESE) 782 4.1 -19.4°
Drops below altitude 10° 13:31:06 10° 22° (NNE) 2,295 6.7 -18.3°
Sets 13:33:29 0° 21° (NNE) 3,230 7.5 -17.9°
